Weather History for Paynesville, MN

Change the Weather History Date:

Saturday, June 1, 2013

  Actual Average (KLJF) Record (KLJF)
Temperature  
Mean Temperature 56 °F -  
Max Temperature 66 °F 75 °F 91 °F (1961)
Min Temperature 47 °F 52 °F 37 °F (1964)
Degree Days  
Heating Degree Days 8    
Growing Degree Days 6 (Base 50)    
Moisture  
Dew Point 49 °F    
Average Humidity 82    
Maximum Humidity 98    
Minimum Humidity 68    
Precipitation  
Precipitation 0.00 in - - ()
Sea Level Pressure  
Sea Level Pressure 29.73 in    
Wind  
Wind Speed 5 mph (NNW)    
Max Wind Speed 17 mph    
Max Gust Speed 25 mph    
Visibility 10 miles    
Events Rain    
Averages and records for this station are not official NWS values.
T = Trace of Precipitation, MM = Missing Value Source: NWS Daily Summary

Daily Weather History Graph

Daily Weather History Graph

Search for Another Location

Airport:

Trip Planner

Search our weather history database for the weather conditions in past years. The results will help you decide how hot, cold, wet, or windy it might be!

Date:

Astronomy

Jun. 01, 2013 Rise Set
Actual Time 5:33 AM CDT 9:00 PM CDT
Civil Twilight 4:57 AM CDT 9:37 PM CDT
Nautical Twilight 4:09 AM CDT 10:25 PM CDT
Astronomical Twilight 3:07 AM CDT 11:27 PM CDT
Moon 1:49 AM CDT (6/1) 2:13 PM CDT (6/1)
Length of Visible Light 16h 39m
Length of Day
15h 26m
Last Quarter, 40% of the Moon is Illuminated
Jun 1
Last Quarter
Jun 8
New
Jun 16
First Quarter
Jun 23
Full
Jun 29
Last Quarter

Hourly Weather History & Observations

Time (CDT) Temp. Dew Point Humidity Pressure Visibility Wind Dir Wind Speed Gust Speed Precip Events Conditions
12:13 AM 55.4 °F 52.0 °F 88% 29.55 in 10.0 mi Calm Calm - N/A   Clear
12:33 AM 55.8 °F 51.3 °F 85% 29.55 in 10.0 mi SSE 3.5 mph - N/A   Clear
12:53 AM 54.9 °F 51.1 °F 87% 29.55 in 10.0 mi Calm Calm - N/A   Clear
1:13 AM 52.0 °F 49.8 °F 92% 29.55 in 10.0 mi Calm Calm - N/A   Clear
1:33 AM 52.5 °F 50.9 °F 94% 29.55 in 10.0 mi Calm Calm - N/A   Clear
1:53 AM 51.3 °F 50.0 °F 95% 29.55 in 10.0 mi Calm Calm - N/A   Clear
2:13 AM 51.3 °F 50.2 °F 96% 29.55 in 10.0 mi Calm Calm - N/A   Clear
2:33 AM 50.9 °F 49.8 °F 96% 29.56 in 10.0 mi Calm Calm - N/A   Clear
2:53 AM 50.0 °F 48.7 °F 95% 29.55 in 10.0 mi Calm Calm - N/A   Clear
3:13 AM 48.6 °F 47.7 °F 97% 29.56 in 10.0 mi Calm Calm - N/A   Mostly Cloudy
3:33 AM 49.5 °F 48.7 °F 97% 29.55 in 10.0 mi Calm Calm - N/A   Mostly Cloudy
3:53 AM 49.1 °F 48.2 °F 97% 29.56 in 10.0 mi Calm Calm - N/A   Mostly Cloudy
4:13 AM 49.6 °F 48.9 °F 97% 29.56 in 10.0 mi Calm Calm - N/A   Mostly Cloudy
4:33 AM 49.5 °F 48.7 °F 97% 29.56 in 10.0 mi Calm Calm - N/A   Mostly Cloudy
4:53 AM 49.5 °F 48.7 °F 97% 29.57 in 10.0 mi Calm Calm - N/A   Scattered Clouds
5:13 AM 48.2 °F 47.5 °F 97% 29.58 in 10.0 mi Calm Calm - N/A   Clear
5:32 AM 47.7 °F 46.9 °F 97% 29.58 in 10.0 mi Calm Calm - N/A   Clear
5:53 AM 47.8 °F 47.3 °F 98% 29.59 in 7.0 mi Calm Calm - N/A   Clear
6:13 AM 47.7 °F 47.1 °F 98% 29.60 in 5.0 mi Calm Calm - N/A   Clear
6:33 AM 49.1 °F 48.6 °F 98% 29.60 in 10.0 mi Calm Calm - N/A   Clear
6:53 AM 51.6 °F 51.1 °F 98% 29.61 in 10.0 mi Calm Calm - N/A   Clear
7:13 AM 52.7 °F 52.0 °F 97% 29.62 in 10.0 mi Calm Calm - N/A   Clear
7:33 AM 54.3 °F 52.7 °F 94% 29.62 in 10.0 mi Calm Calm - N/A   Clear
7:53 AM 57.0 °F 54.1 °F 90% 29.63 in 10.0 mi Calm Calm - N/A   Clear
8:13 AM 58.6 °F 54.3 °F 86% 29.63 in 10.0 mi NNW 5.8 mph - N/A   Clear
8:33 AM 59.9 °F 54.7 °F 83% 29.63 in 10.0 mi North 4.6 mph - N/A   Clear
8:52 AM 61.2 °F 55.2 °F 81% 29.64 in 10.0 mi North 5.8 mph - N/A   Clear
9:13 AM 62.6 °F 55.6 °F 78% 29.64 in 10.0 mi North 10.4 mph 18.4 mph N/A   Scattered Clouds
9:33 AM 63.1 °F 56.3 °F 78% 29.65 in 10.0 mi North 6.9 mph - N/A   Scattered Clouds
9:52 AM 65.5 °F 56.5 °F 73% 29.66 in 10.0 mi North 8.1 mph - N/A   Clear
10:13 AM 65.7 °F 56.5 °F 72% 29.66 in 10.0 mi North 12.7 mph 17.3 mph N/A   Mostly Cloudy
10:33 AM 66.0 °F 56.1 °F 70% 29.67 in 10.0 mi North 12.7 mph - N/A   Overcast
10:53 AM 65.3 °F 54.5 °F 68% 29.68 in 10.0 mi North 13.8 mph 19.6 mph N/A   Scattered Clouds
11:13 AM 65.3 °F 55.4 °F 70% 29.69 in 10.0 mi North 10.4 mph 16.1 mph N/A   Mostly Cloudy
11:33 AM 64.4 °F 55.6 °F 73% 29.70 in 10.0 mi North 9.2 mph 16.1 mph N/A   Overcast
11:53 AM 63.7 °F 55.6 °F 75% 29.70 in 10.0 mi NNW 15.0 mph 18.4 mph N/A   Overcast
12:13 PM 60.8 °F 57.2 °F 88% 29.72 in 7.0 mi NNW 10.4 mph 18.4 mph N/A Rain Light Rain
12:33 PM 61.2 °F 55.4 °F 81% 29.72 in 10.0 mi NNW 15.0 mph 18.4 mph N/A   Overcast
12:53 PM 62.1 °F 55.4 °F 79% 29.72 in 10.0 mi NNW 16.1 mph 20.7 mph N/A   Overcast
1:12 PM 61.9 °F 54.5 °F 77% 29.73 in 10.0 mi North 12.7 mph 19.6 mph N/A   Overcast
1:33 PM 62.6 °F 54.0 °F 73% 29.74 in 10.0 mi NNW 13.8 mph 18.4 mph N/A   Overcast
1:53 PM 61.2 °F 52.9 °F 74% 29.75 in 10.0 mi NNW 13.8 mph 19.6 mph N/A   Overcast
2:13 PM 60.3 °F 52.2 °F 75% 29.76 in 10.0 mi NNW 9.2 mph 20.7 mph N/A   Overcast
2:33 PM 59.9 °F 51.1 °F 73% 29.77 in 10.0 mi NNW 13.8 mph 19.6 mph N/A   Overcast
2:53 PM 59.0 °F 50.2 °F 73% 29.79 in 10.0 mi NNW 12.7 mph 20.7 mph N/A   Overcast
3:13 PM 58.1 °F 49.5 °F 73% 29.80 in 10.0 mi NNW 15.0 mph 24.2 mph N/A   Overcast
3:33 PM 56.7 °F 48.4 °F 74% 29.81 in 10.0 mi NNW 15.0 mph 24.2 mph N/A   Overcast
3:53 PM 55.8 °F 47.5 °F 74% 29.82 in 10.0 mi NNW 15.0 mph 23.0 mph N/A   Overcast
4:13 PM 54.5 °F 46.6 °F 75% 29.83 in 10.0 mi NNW 15.0 mph 24.2 mph N/A   Overcast
4:33 PM 54.5 °F 45.5 °F 72% 29.83 in 10.0 mi North 15.0 mph 21.9 mph N/A   Overcast
4:53 PM 54.5 °F 46.2 °F 74% 29.84 in 10.0 mi North 13.8 mph 18.4 mph N/A   Overcast
5:13 PM 54.3 °F 45.7 °F 73% 29.85 in 10.0 mi North 15.0 mph 20.7 mph N/A   Overcast
5:33 PM 53.6 °F 44.1 °F 70% 29.86 in 10.0 mi NNW 9.2 mph 25.3 mph N/A   Overcast
5:53 PM 52.7 °F 43.2 °F 70% 29.87 in 10.0 mi NNW 17.3 mph 23.0 mph N/A   Overcast
6:13 PM 52.7 °F 43.3 °F 70% 29.88 in 10.0 mi NNW 12.7 mph 21.9 mph N/A   Overcast
6:33 PM 52.7 °F 43.0 °F 70% 29.89 in 10.0 mi North 11.5 mph 18.4 mph N/A   Overcast
6:52 PM 52.7 °F 43.0 °F 70% 29.89 in 10.0 mi North 12.7 mph 24.2 mph N/A   Overcast
7:13 PM 52.5 °F 43.7 °F 72% 29.90 in 10.0 mi NNW 12.7 mph 18.4 mph N/A   Overcast
7:33 PM 52.7 °F 43.7 °F 71% 29.91 in 10.0 mi NNW 10.4 mph 19.6 mph N/A   Overcast
7:53 PM 52.3 °F 43.9 °F 73% 29.92 in 10.0 mi North 10.4 mph 16.1 mph N/A   Overcast
8:13 PM 52.5 °F 43.7 °F 72% 29.93 in 10.0 mi North 10.4 mph 20.7 mph N/A   Overcast
8:33 PM 52.7 °F 43.7 °F 71% 29.93 in 10.0 mi North 9.2 mph - N/A   Overcast
8:53 PM 53.1 °F 42.8 °F 68% 29.94 in 10.0 mi North 8.1 mph 17.3 mph N/A   Overcast
9:13 PM 53.1 °F 43.0 °F 69% 29.95 in 10.0 mi North 9.2 mph - N/A   Overcast
9:33 PM 52.9 °F 43.2 °F 70% 29.95 in 10.0 mi North 5.8 mph - N/A   Overcast
9:53 PM 52.7 °F 43.5 °F 71% 29.96 in 10.0 mi NNW 3.5 mph - N/A   Overcast
10:13 PM 52.7 °F 43.9 °F 72% 29.97 in 10.0 mi NNW 3.5 mph - N/A   Overcast
10:33 PM 52.5 °F 44.8 °F 75% 29.97 in 10.0 mi North 8.1 mph - N/A   Overcast
10:53 PM 51.4 °F 46.2 °F 82% 29.98 in 10.0 mi NNW 9.2 mph - N/A   Overcast
11:13 PM 50.7 °F 46.8 °F 86% 29.99 in 10.0 mi NNW 12.7 mph 17.3 mph N/A   Overcast
11:33 PM 50.0 °F 46.9 °F 89% 29.99 in 10.0 mi NNW 9.2 mph - N/A   Overcast
11:53 PM 49.5 °F 46.4 °F 89% 30.00 in 10.0 mi NNW 10.4 mph 16.1 mph N/A   Mostly Cloudy